Total_Precipitation_Accumulation
0.38 0.38 0.37 0.36 0.30 0.28 0.31 0.35 0.65 0.98 1.31 1.72 1.90 1.84 1.79 1.71 1.49 1.20 1.08 1.06 1.03 1.02 1.02 0.95 0.88 0.83 0.79 0.78 0.77 0.81 0.84 0.83 0.75 0.67 0.64 0.64 0.64 0.64 0.62 0.56 0.53 0.52 0.49 0.44
0.35 0.28 0.32 0.37 0.38 0.40 0.44 0.49 0.67 1.05 1.57 1.95 2.04 1.91 1.84 1.77 1.62 1.48 1.38 1.31 1.26 1.19 1.16 1.14 1.06 0.95 0.87 0.87 0.88 0.89 0.94 1.00 1.01 0.94 0.85 0.79 0.72 0.65 0.61 0.57 0.49 0.40 0.34 0.32
0.56 0.33 0.46 0.77 0.61 0.53 0.58 0.65 0.84 1.31 1.64 1.68 1.77 1.86 1.94 1.98 1.88 1.74 1.63 1.55 1.50 1.45 1.38 1.32 1.24 1.17 1.11 1.03 0.98 0.96 0.97 1.00 1.00 0.94 0.84 0.75 0.65 0.57 0.55 0.53 0.48 0.43 0.35 0.29
0.62 0.65 1.13 1.04 0.59 0.56 0.68 0.77 0.86 1.06 1.24 1.34 1.34 1.44 1.53 1.64 1.69 1.67 1.53 1.49 1.49 1.49 1.47 1.45 1.33 1.24 1.18 1.11 1.07 1.01 1.00 0.96 0.91 0.81 0.70 0.59 0.54 0.52 0.51 0.50 0.50 0.47 0.41 0.36
0.68 0.94 1.13 0.98 0.57 0.55 0.89 1.32 1.09 1.03 0.96 0.91 0.88 0.97 1.27 1.44 1.48 1.57 1.58 1.56 1.54 1.48 1.40 1.36 1.28 1.22 1.16 1.14 1.08 1.00 0.95 0.84 0.72 0.63 0.59 0.55 0.52 0.52 0.51 0.48 0.46 0.44 0.40 0.38
0.74 1.08 1.35 1.23 0.54 0.38 0.75 1.62 1.30 1.10 0.97 0.88 0.98 1.16 1.21 1.19 1.20 1.29 1.33 1.33 1.26 1.17 1.11 1.11 1.13 1.09 1.05 1.03 0.97 0.88 0.73 0.59 0.52 0.50 0.51 0.52 0.50 0.47 0.45 0.46 0.45 0.39 0.34 0.34
0.83 1.18 1.36 0.69 0.33 0.48 1.20 1.55 1.26 1.08 0.95 0.90 1.08 1.11 0.93 0.88 0.97 1.00 1.03 1.00 0.93 0.89 0.96 1.02 1.02 0.95 0.91 0.85 0.79 0.67 0.57 0.51 0.46 0.44 0.41 0.43 0.45 0.44 0.44 0.43 0.46 0.45 0.43 0.39
0.94 1.27 1.36 0.55 0.38 0.68 0.87 0.76 0.85 0.88 0.84 0.78 0.73 0.60 0.60 0.64 0.70 0.70 0.70 0.71 0.69 0.72 0.79 0.81 0.75 0.75 0.81 0.75 0.63 0.52 0.54 0.54 0.51 0.44 0.37 0.42 0.52 0.51 0.47 0.51 0.55 0.54 0.50 0.45
0.94 1.14 0.91 0.49 0.40 0.44 0.51 0.62 0.63 0.63 0.60 0.49 0.44 0.39 0.42 0.45 0.44 0.46 0.46 0.52 0.57 0.58 0.62 0.66 0.63 0.66 0.72 0.71 0.59 0.56 0.61 0.60 0.49 0.40 0.44 0.47 0.52 0.50 0.43 0.43 0.41 0.39 0.37 0.36
0.66 0.75 0.60 0.48 0.42 0.39 0.40 0.43 0.41 0.42 0.43 0.34 0.32 0.34 0.37 0.40 0.38 0.36 0.39 0.42 0.48 0.49 0.49 0.53 0.52 0.56 0.61 0.56 0.55 0.66 0.73 0.62 0.47 0.41 0.41 0.42 0.41 0.36 0.31 0.33 0.32 0.30 0.28 0.26
0.64 0.68 0.64 0.63 0.44 0.34 0.30 0.28 0.28 0.31 0.31 0.27 0.27 0.32 0.32 0.34 0.36 0.38 0.39 0.41 0.44 0.47 0.45 0.40 0.41 0.46 0.44 0.48 0.58 0.77 0.74 0.60 0.49 0.41 0.38 0.36 0.30 0.22 0.18 0.16 0.14 0.18 0.20 0.18
0.58 0.52 0.60 0.67 0.49 0.34 0.33 0.29 0.27 0.24 0.24 0.28 0.30 0.31 0.29 0.28 0.32 0.34 0.35 0.36 0.42 0.42 0.38 0.37 0.38 0.39 0.38 0.43 0.50 0.65 0.65 0.49 0.41 0.37 0.32 0.26 0.23 0.21 0.13 0.08 0.07 0.06 0.07 0.07
0.31 0.30 0.35 0.35 0.29 0.26 0.26 0.26 0.26 0.25 0.24 0.28 0.30 0.29 0.27 0.25 0.25 0.29 0.34 0.35 0.39 0.39 0.34 0.31 0.33 0.35 0.32 0.33 0.38 0.48 0.49 0.37 0.29 0.27 0.27 0.25 0.22 0.28 0.28 0.15 0.07 0.05 0.06 0.06
0.16 0.21 0.26 0.27 0.28 0.25 0.25 0.27 0.25 0.23 0.24 0.29 0.30 0.28 0.23 0.20 0.21 0.25 0.28 0.26 0.23 0.23 0.25 0.27 0.26 0.24 0.20 0.20 0.27 0.29 0.25 0.18 0.17 0.21 0.20 0.18 0.17 0.19 0.22 0.25 0.25 0.19 0.10 0.06
0.15 0.18 0.23 0.28 0.29 0.26 0.28 0.29 0.28 0.26 0.24 0.26 0.24 0.20 0.17 0.17 0.17 0.18 0.18 0.16 0.17 0.21 0.21 0.19 0.20 0.19 0.13 0.13 0.16 0.17 0.15 0.14 0.14 0.13 0.11 0.11 0.11 0.11 0.11 0.16 0.25 0.27 0.20 0.12
0.18 0.18 0.20 0.25 0.29 0.30 0.30 0.32 0.31 0.26 0.20 0.18 0.17 0.16 0.14 0.13 0.12 0.12 0.12 0.12 0.18 0.21 0.19 0.18 0.18 0.14 0.09 0.09 0.11 0.11 0.10 0.09 0.10 0.09 0.09 0.08 0.08 0.09 0.10 0.14 0.17 0.20 0.20 0.14
0.22 0.22 0.19 0.19 0.22 0.25 0.23 0.19 0.19 0.19 0.15 0.14 0.12 0.10 0.09 0.09 0.10 0.11 0.11 0.12 0.16 0.18 0.17 0.16 0.13 0.07 0.04 0.04 0.07 0.07 0.05 0.04 0.04 0.05 0.07 0.07 0.07 0.08 0.09 0.10 0.13 0.15 0.13 0.10
0.22 0.19 0.15 0.14 0.15 0.17 0.14 0.11 0.11 0.14 0.13 0.09 0.06 0.06 0.07 0.08 0.09 0.08 0.09 0.08 0.10 0.14 0.13 0.09 0.06 0.04 0.03 0.03 0.05 0.04 0.03 0.03 0.03 0.05 0.05 0.05 0.06 0.07 0.09 0.10 0.11 0.12 0.11 0.10
0.12 0.09 0.09 0.08 0.09 0.09 0.10 0.10 0.09 0.10 0.09 0.05 0.04 0.06 0.06 0.06 0.05 0.06 0.06 0.07 0.10 0.13 0.11 0.05 0.03 0.03 0.03 0.02 0.02 0.03 0.02 0.02 0.02 0.03 0.03 0.04 0.05 0.06 0.06 0.07 0.08 0.09 0.10 0.13
0.06 0.05 0.06 0.06 0.06 0.06 0.08 0.09 0.07 0.07 0.05 0.04 0.04 0.05 0.05 0.04 0.03 0.03 0.05 0.09 0.10 0.08 0.05 0.02 0.02 0.04 0.03 0.01 0.01 0.01 0.01 0.01 0.02 0.02 0.02 0.03 0.04 0.04 0.05 0.05 0.06 0.08 0.10 0.12
0.06 0.05 0.05 0.05 0.05 0.06 0.07 0.07 0.07 0.06 0.04 0.03 0.04 0.04 0.03 0.03 0.02 0.02 0.04 0.07 0.07 0.04 0.02 0.01 0.02 0.02 0.01 0.01 0.00 0.00 0.01 0.01 0.02 0.02 0.02 0.03 0.03 0.03 0.04 0.04 0.06 0.08 0.09 0.10
0.07 0.05 0.05 0.05 0.05 0.07 0.08 0.08 0.07 0.05 0.03 0.02 0.02 0.02 0.02 0.02 0.02 0.02 0.03 0.05 0.04 0.02 0.01 0.00 0.01 0.01 0.00 0.00 0.00 0.00 0.01 0.01 0.01 0.02 0.02 0.02 0.02 0.02 0.04 0.04 0.05 0.07 0.07 0.08
0.10 0.07 0.06 0.06 0.07 0.09 0.09 0.08 0.06 0.03 0.02 0.02 0.02 0.02 0.02 0.02 0.01 0.01 0.03 0.02 0.01 0.00 0.01 0.01 0.00 0.00 0.00 0.00 0.01 0.01 0.01 0.01 0.01 0.02 0.01 0.01 0.02 0.02 0.03 0.03 0.04 0.04 0.05 0.07
0.15 0.11 0.09 0.09 0.10 0.10 0.09 0.07 0.04 0.02 0.02 0.02 0.01 0.01 0.02 0.02 0.01 0.00 0.00 0.00 0.00 0.00 0.00 0.00 0.00 0.00 0.00 0.00 0.01 0.01 0.01 0.01 0.01 0.01 0.01 0.01 0.01 0.02 0.02 0.03 0.03 0.03 0.04 0.05
0.13 0.13 0.13 0.14 0.16 0.14 0.09 0.06 0.04 0.03 0.02 0.02 0.01 0.01 0.01 0.01 0.00 0.00 0.00 0.00 0.00 0.00 0.00 0.00 0.00 0.00 0.00 0.01 0.01 0.01 0.01 0.01 0.01 0.01 0.01 0.02 0.02 0.02 0.02 0.03 0.03 0.03 0.04 0.05
0.20 0.22 0.20 0.15 0.13 0.12 0.08 0.05 0.04 0.04 0.03 0.02 0.02 0.01 0.01 0.00 0.00 0.00 0.00 0.00 0.00 0.00 0.00 0.00 0.00 0.00 0.00 0.01 0.01 0.01 0.01 0.01 0.01 0.01 0.01 0.02 0.02 0.02 0.02 0.03 0.03 0.04 0.05 0.05
0.29 0.27 0.24 0.19 0.14 0.09 0.07 0.06 0.04 0.04 0.03 0.03 0.02 0.01 0.01 0.01 0.00 0.00 0.00 0.00 0.00 0.00 0.00 0.00 0.00 0.00 0.01 0.01 0.01 0.01 0.01 0.01 0.02 0.02 0.02 0.02 0.02 0.02 0.02 0.03 0.04 0.05 0.05 0.04